Temp
11 11 12 12 12 12 13 13 13 13 13 13 13 13 12 12 12 12 12 12 12 12 12 13 13 14 14 14 13 13 14 14 13 14 11 10 10 10 10 10 9 11 11 12 11
11 11 12 12 12 12 13 13 13 13 13 13 13 13 12 12 12 12 12 11 11 11 12 12 13 13 14 14 14 13 14 14 13 12 12 11 11 10 10 10 11 11 11 11 11
11 12 12 12 12 12 13 12 13 13 13 13 13 13 12 12 12 11 11 11 11 11 12 12 13 13 14 13 14 13 14 13 12 12 12 11 11 10 10 10 11 11 11 11 11
12 12 12 12 12 12 13 13 13 13 13 13 13 13 12 12 13 12 11 12 12 12 12 12 13 13 13 12 14 13 14 13 13 12 12 11 11 11 10 10 10 11 11 11 10
12 12 12 12 13 13 13 13 13 13 13 13 13 13 13 12 12 12 12 12 12 12 12 12 11 12 13 13 13 13 13 13 12 12 11 12 10 10 11 9 9 10 11 11 10
12 12 12 12 13 13 13 13 13 13 13 13 13 13 13 12 12 12 12 12 12 12 12 12 12 13 12 13 13 12 12 13 13 12 11 11 11 10 11 10 11 10 10 11 10
12 12 12 13 13 13 13 13 13 13 13 13 13 13 13 13 12 12 13 12 13 13 12 12 13 13 13 13 13 13 13 12 12 12 11 11 11 10 12 11 10 10 10 11 10
12 12 12 13 13 13 13 13 13 13 13 13 13 13 12 13 13 12 13 12 13 13 13 13 13 13 13 14 13 14 14 14 12 12 12 12 12 11 11 10 9 9 10 10 10
12 12 12 13 13 13 13 13 13 13 13 13 13 13 12 13 13 12 12 13 13 13 13 13 13 14 14 13 15 14 16 15 13 12 13 12 12 11 10 9 9 9 9 9 10
12 12 12 13 13 13 13 13 13 13 13 13 12 12 13 13 13 13 13 13 13 13 14 14 14 15 15 14 16 16 16 15 15 13 13 13 12 12 11 10 9 9 9 8 8
12 12 12 13 13 13 13 13 13 13 13 12 12 12 13 13 13 12 13 13 13 13 14 14 15 16 16 15 16 15 15 16 15 14 13 14 13 11 11 11 10 9 9 9 9
11 12 12 13 13 13 13 13 13 13 12 13 13 12 13 13 13 13 12 13 13 13 13 14 16 16 15 15 15 16 16 16 15 14 14 14 14 12 11 11 11 10 9 9 9
11 11 12 12 13 13 12 12 12 13 12 13 13 12 12 12 12 12 13 12 13 13 13 15 16 15 15 16 16 16 17 17 17 14 15 15 15 13 12 11 10 11 10 10 10
11 11 11 12 12 12 12 12 12 12 13 13 12 12 12 12 12 12 12 12 12 13 13 13 15 15 15 16 16 17 16 16 16 16 17 15 16 14 13 11 11 10 10 10 10
11 11 12 12 12 12 12 12 12 12 16 13 12 12 12 12 13 12 11 12 13 13 13 13 14 14 15 16 16 16 15 16 16 17 17 16 17 14 13 13 12 11 11 10 10
11 11 11 11 11 11 11 11 11 12 15 12 12 12 12 12 12 12 12 12 13 13 13 13 14 14 15 15 15 16 15 16 16 17 18 17 17 16 15 12 11 11 11 12 10
11 11 11 11 11 11 11 11 11 13 12 12 12 12 13 13 13 12 12 12 13 13 14 13 14 14 15 14 15 15 16 17 18 18 19 15 16 15 10 14 12 11 11 11 11
11 11 11 11 11 10 10 9 12 11 11 10 11 12 13 13 13 12 13 13 13 14 15 15 14 14 14 15 16 15 16 18 18 19 19 14 16 14 14 13 13 13 14 10 11
10 10 10 10 10 10 9 10 12 11 10 11 11 12 13 13 13 13 13 14 13 13 14 15 16 13 13 14 15 15 15 16 16 16 17 17 13 12 12 12 12 12 10 9 9
9 9 9 9 9 9 8 10 10 9 10 11 12 11 13 13 12 13 13 13 13 12 13 14 15 14 13 14 14 14 15 16 16 17 17 18 15 15 10 11 11 10 10 10 9
9 8 8 9 8 8 9 10 9 8 9 9 10 11 12 12 13 13 14 13 13 12 12 13 14 13 12 14 15 14 14 14 15 15 17 18 17 13 11 10 9 9 9 9 9
8 7 8 8 7 8 9 8 8 8 8 8 9 9 11 11 12 13 13 13 12 12 12 13 14 14 14 13 13 13 14 14 16 16 15 15 14 12 12 9 9 9 9 9 9
7 7 7 7 8 8 7 7 7 8 8 8 9 9 9 10 11 12 12 12 12 13 12 12 14 14 13 12 12 13 12 13 14 14 15 15 14 12 11 9 10 10 10 9 8
7 6 6 7 7 7 7 7 7 7 7 8 8 9 9 9 10 11 11 12 12 12 12 12 14 14 15 14 14 12 12 12 13 14 15 14 10 11 9 9 10 10 10 10 10
6 6 6 7 6 6 7 6 7 7 7 7 8 8 9 10 10 10 11 12 12 12 12 12 13 12 12 12 12 12 12 11 12 13 13 13 12 9 8 7 8 9 8 7 7
6 6 6 6 6 6 6 7 6 6 6 7 7 8 9 9 10 11 10 10 11 12 12 12 11 11 11 10 11 11 10 10 10 10 10 11 11 8 6 6 7 7 6 7 6
6 5 5 5 5 6 6 6 6 6 7 6 7 7 8 9 9 9 9 10 11 10 11 11 12 11 12 10 10 11 10 9 9 9 9 10 10 7 8 6 6 6 6 6 6
Height
3165 3166 3166 3166 3166 3166 3166 3166 3167 3168 3167 3168 3169 3170 3170 3170 3171 3171 3172 3173 3173 3175 3178 3179 3181 3182 3183 3184 3185 3186 3189 3190 3191 3192 3193 3193 3194 3193 3193 3195 3197 3198 3200 3202 3203
3164 3164 3164 3164 3164 3165 3165 3165 3166 3167 3167 3168 3169 3170 3170 3172 3173 3172 3173 3171 3172 3174 3176 3179 3181 3183 3185 3186 3187 3188 3191 3192 3193 3193 3194 3195 3197 3195 3197 3197 3198 3200 3202 3204 3206
3163 3163 3163 3163 3163 3164 3164 3164 3165 3166 3166 3167 3169 3170 3171 3174 3175 3175 3174 3174 3174 3174 3175 3179 3182 3184 3186 3188 3189 3191 3193 3193 3193 3195 3195 3196 3197 3198 3200 3201 3201 3202 3203 3205 3207
3162 3163 3162 3162 3162 3163 3163 3163 3164 3165 3166 3167 3169 3170 3172 3175 3181 3177 3175 3177 3176 3176 3178 3180 3182 3185 3188 3191 3191 3194 3193 3195 3195 3196 3197 3198 3198 3200 3201 3203 3201 3202 3205 3206 3208
3162 3162 3162 3162 3162 3162 3162 3162 3164 3165 3166 3167 3169 3171 3173 3176 3177 3177 3178 3179 3178 3178 3179 3182 3185 3188 3191 3191 3192 3194 3195 3196 3196 3197 3199 3198 3200 3200 3199 3201 3201 3203 3206 3208 3209
3162 3162 3161 3161 3161 3161 3161 3162 3163 3164 3166 3167 3169 3171 3174 3179 3177 3178 3179 3180 3180 3179 3181 3183 3184 3187 3191 3191 3193 3194 3195 3196 3198 3199 3200 3200 3201 3202 3200 3201 3203 3206 3208 3209 3210
3161 3161 3161 3161 3161 3160 3161 3162 3162 3164 3166 3167 3169 3171 3175 3177 3178 3179 3180 3181 3182 3182 3183 3183 3184 3188 3191 3193 3193 3196 3198 3197 3198 3199 3201 3202 3204 3203 3202 3203 3205 3207 3209 3211 3213
3161 3160 3160 3160 3160 3160 3161 3161 3162 3164 3165 3167 3169 3172 3174 3177 3178 3180 3181 3183 3183 3184 3185 3185 3186 3188 3191 3193 3195 3197 3198 3198 3199 3200 3201 3203 3205 3203 3204 3205 3207 3209 3211 3213 3214
3160 3160 3159 3160 3160 3159 3160 3161 3162 3164 3165 3167 3170 3173 3175 3176 3179 3180 3182 3183 3184 3185 3186 3187 3189 3190 3192 3194 3196 3196 3196 3198 3200 3200 3201 3204 3206 3204 3205 3207 3209 3211 3213 3215 3216
3158 3158 3159 3159 3159 3159 3160 3161 3162 3164 3166 3168 3170 3176 3174 3175 3177 3179 3181 3184 3185 3187 3189 3189 3191 3194 3195 3195 3193 3195 3196 3198 3198 3201 3201 3204 3206 3205 3207 3209 3211 3213 3215 3217 3218
3157 3157 3157 3158 3159 3159 3160 3161 3165 3166 3165 3169 3170 3170 3171 3174 3176 3179 3181 3183 3185 3188 3191 3191 3193 3193 3193 3195 3195 3197 3197 3198 3199 3200 3202 3204 3206 3205 3206 3210 3212 3213 3215 3218 3220
3155 3155 3156 3156 3158 3158 3159 3160 3162 3164 3166 3165 3166 3168 3169 3172 3175 3177 3180 3184 3185 3187 3189 3192 3192 3192 3192 3193 3194 3195 3196 3197 3199 3199 3201 3203 3206 3206 3207 3210 3212 3213 3215 3218 3221
3153 3153 3154 3154 3156 3158 3159 3160 3161 3162 3164 3165 3166 3168 3170 3172 3175 3176 3179 3182 3184 3185 3188 3190 3190 3189 3191 3192 3192 3193 3195 3196 3197 3199 3201 3202 3204 3206 3207 3209 3211 3214 3216 3218 3221
3151 3151 3151 3152 3155 3155 3157 3159 3161 3162 3165 3165 3164 3166 3168 3171 3173 3174 3177 3181 3182 3184 3186 3187 3188 3189 3191 3192 3192 3192 3193 3195 3197 3197 3195 3199 3199 3204 3206 3208 3209 3211 3214 3216 3219
3150 3149 3149 3150 3151 3153 3157 3157 3160 3162 3161 3161 3162 3161 3165 3170 3170 3170 3172 3177 3181 3182 3185 3186 3186 3187 3189 3190 3190 3191 3192 3195 3196 3195 3196 3198 3197 3200 3203 3207 3208 3210 3209 3213 3217
3148 3147 3147 3148 3148 3151 3153 3156 3160 3165 3158 3158 3158 3159 3163 3166 3168 3167 3171 3175 3178 3180 3181 3182 3182 3185 3186 3187 3189 3190 3193 3194 3196 3195 3194 3193 3198 3197 3201 3204 3205 3208 3208 3209 3211
3145 3145 3145 3145 3147 3148 3151 3155 3162 3157 3156 3158 3157 3158 3161 3163 3166 3167 3169 3171 3174 3177 3178 3181 3181 3180 3184 3187 3187 3189 3191 3189 3190 3189 3187 3192 3196 3193 3196 3195 3197 3200 3204 3207 3209
3143 3142 3142 3142 3143 3146 3150 3156 3156 3154 3155 3153 3154 3156 3159 3161 3163 3164 3166 3169 3171 3173 3173 3175 3179 3178 3181 3183 3185 3187 3187 3185 3181 3181 3181 3188 3189 3190 3192 3192 3192 3194 3197 3203 3206
3140 3139 3139 3139 3141 3143 3149 3152 3151 3152 3151 3153 3154 3156 3157 3159 3161 3162 3163 3165 3167 3170 3173 3172 3173 3174 3178 3179 3183 3185 3186 3186 3185 3185 3186 3183 3187 3190 3189 3190 3189 3190 3193 3197 3202
3138 3137 3137 3138 3139 3142 3147 3148 3149 3149 3149 3151 3153 3153 3154 3156 3159 3160 3161 3163 3164 3167 3169 3170 3171 3174 3174 3177 3180 3181 3182 3184 3183 3182 3179 3177 3183 3186 3189 3187 3187 3187 3187 3190 3194
3136 3137 3136 3136 3138 3141 3144 3147 3146 3146 3148 3151 3151 3152 3152 3153 3154 3155 3158 3160 3163 3163 3165 3168 3169 3171 3174 3175 3175 3179 3179 3181 3181 3181 3176 3172 3175 3182 3183 3184 3184 3185 3187 3188 3188
3135 3140 3136 3136 3141 3139 3143 3142 3142 3145 3146 3148 3148 3149 3151 3151 3151 3153 3155 3158 3158 3162 3164 3166 3165 3167 3170 3169 3172 3174 3175 3176 3175 3177 3178 3178 3177 3179 3180 3180 3181 3181 3182 3183 3185
3133 3135 3135 3137 3141 3140 3139 3140 3140 3142 3143 3145 3146 3147 3147 3149 3150 3150 3153 3153 3156 3159 3163 3164 3163 3166 3170 3173 3171 3173 3173 3175 3175 3175 3174 3175 3173 3175 3178 3177 3178 3179 3180 3181 3183
3132 3136 3135 3135 3136 3137 3138 3139 3139 3138 3138 3139 3141 3143 3144 3145 3147 3147 3149 3150 3153 3156 3159 3161 3162 3161 3160 3162 3164 3171 3172 3173 3175 3172 3170 3172 3172 3173 3175 3175 3176 3178 3178 3179 3180
3130 3131 3132 3136 3136 3136 3136 3137 3137 3137 3136 3135 3135 3136 3140 3142 3144 3145 3147 3146 3150 3154 3157 3161 3161 3163 3162 3163 3166 3169 3170 3171 3172 3172 3172 3170 3171 3171 3172 3173 3174 3176 3177 3178 3179
3128 3129 3130 3131 3133 3135 3135 3136 3134 3132 3130 3131 3132 3133 3135 3137 3141 3142 3144 3146 3147 3150 3153 3157 3159 3162 3163 3164 3166 3167 3168 3168 3169 3169 3170 3170 3171 3169 3169 3170 3172 3174 3175 3177 3178
3125 3125 3127 3129 3132 3134 3134 3132 3131 3128 3126 3126 3126 3129 3131 3133 3138 3138 3140 3143 3145 3148 3149 3153 3156 3159 3160 3164 3165 3166 3166 3165 3167 3166 3168 3169 3167 3165 3164 3166 3169 3171 3173 3175 3176
Wind_Speed
5 6 7 8 8 8 8 7 6 4 3 2 4 5 5 6 6 3 2 1 6 7 7 7 9 9 11 8 9 13 14 15 13 11 12 11 10 9 11 14 12 14 16 19 23
3 4 5 6 7 7 7 7 6 5 4 4 5 8 7 8 7 6 7 8 7 7 8 9 8 9 12 9 7 13 13 12 11 11 12 11 9 9 13 10 14 12 14 15 16
2 3 3 4 5 6 6 6 6 5 5 6 7 10 10 10 7 4 14 14 14 11 11 11 10 9 11 9 8 8 11 11 10 12 13 13 11 11 12 10 10 7 13 15 15
2 3 2 2 4 4 5 5 6 5 6 7 9 12 12 12 3 14 12 14 15 16 15 12 10 8 9 4 5 7 4 8 14 14 14 13 11 14 8 8 9 14 12 12 14
2 3 2 2 2 4 4 5 5 6 7 9 11 13 14 11 9 14 13 15 16 15 16 11 7 7 5 6 8 6 8 10 11 12 12 13 13 8 6 12 14 16 14 12 13
3 3 2 3 2 3 3 4 5 6 8 11 13 14 15 9 13 14 15 13 15 15 12 9 11 11 7 7 6 7 11 11 9 11 9 9 11 7 8 14 17 15 13 11 10
3 3 3 3 2 2 3 4 5 6 8 12 14 16 16 13 16 16 15 13 12 11 12 9 14 11 11 6 5 11 10 10 8 6 7 8 8 7 7 14 18 18 14 12 14
4 3 4 3 2 2 2 4 5 6 8 12 16 18 14 15 18 18 14 11 9 8 9 12 14 13 9 6 7 4 6 7 5 7 4 4 7 5 7 15 17 17 14 14 19
4 4 4 3 3 2 1 4 5 6 8 12 18 18 14 17 20 20 18 15 9 6 6 9 15 10 8 7 7 4 8 6 5 7 3 6 6 7 8 16 16 16 15 15 19
5 4 4 3 1 1 1 4 6 7 8 12 18 15 16 17 22 24 20 15 12 8 5 8 7 5 6 5 2 6 6 6 5 5 6 6 6 7 11 14 15 16 14 15 17
5 4 6 4 1 1 2 5 5 7 9 13 13 14 16 19 19 23 24 18 12 9 5 9 6 8 7 7 3 1 2 3 3 6 8 7 6 9 11 13 15 16 16 16 15
5 5 6 6 3 3 4 6 7 7 10 14 11 22 12 20 17 21 25 22 20 12 8 7 9 8 5 5 7 8 6 5 4 7 9 8 6 10 12 13 12 15 16 16 16
6 6 7 9 6 6 6 6 6 5 6 13 11 18 10 15 13 18 23 18 14 20 15 11 4 9 7 7 8 9 9 5 2 9 8 9 9 11 12 14 14 13 14 16 16
6 7 7 10 11 9 10 8 6 3 3 8 16 17 15 10 11 17 21 15 13 16 18 15 14 12 9 8 8 9 6 8 7 11 9 11 6 11 12 14 16 15 16 17 18
6 7 8 10 12 13 10 10 7 6 5 7 14 18 15 15 8 16 25 18 14 14 16 18 11 17 12 10 9 6 6 8 9 9 5 7 11 11 11 13 15 16 16 17 18
7 6 7 9 12 14 12 9 7 5 7 4 10 16 17 18 11 12 18 20 15 13 14 12 14 16 15 15 12 7 7 4 5 9 13 7 9 13 10 11 11 15 18 22 24
8 7 6 7 10 13 13 10 6 11 5 5 7 13 19 18 17 12 17 19 18 17 17 14 14 14 20 11 12 11 12 14 11 11 13 5 8 3 4 10 10 13 17 24 29
8 7 5 6 9 12 14 10 11 4 6 4 6 11 19 18 20 16 17 19 19 16 16 20 13 16 17 17 14 17 18 18 11 10 11 2 9 6 15 13 14 12 17 23 32
10 6 5 5 9 13 16 17 8 10 6 6 5 10 16 18 14 20 18 20 19 19 15 18 15 18 16 18 16 13 15 15 16 12 16 19 3 13 11 11 8 6 15 23 26
8 5 3 3 7 13 15 18 10 10 7 6 10 9 15 18 19 18 18 18 18 17 18 13 15 12 16 15 16 14 12 10 14 14 13 12 9 6 5 9 9 10 18 27 32
5 2 1 2 6 14 15 14 13 10 10 5 7 9 10 12 20 18 19 11 17 14 18 13 19 13 13 15 14 12 12 11 12 9 13 9 5 13 15 13 11 12 17 23 31
2 1 3 2 3 12 11 12 14 10 11 9 9 8 8 10 15 19 19 13 14 16 16 16 14 14 16 12 18 15 11 12 14 14 15 15 4 5 13 11 17 15 18 24 29
3 5 4 4 3 3 5 7 11 12 14 15 16 11 6 5 9 17 19 18 14 18 14 15 12 11 8 7 10 10 10 11 10 10 12 13 2 6 15 17 16 12 14 18 22
3 2 6 7 5 4 4 6 8 10 14 16 17 18 19 15 9 7 14 22 20 19 17 16 10 14 10 7 9 10 8 8 12 15 15 15 8 7 16 20 18 14 16 16 17
4 8 8 4 4 2 1 4 6 9 12 14 14 19 19 20 15 13 15 23 21 18 21 12 11 8 5 1 5 8 8 8 12 15 15 10 7 13 16 19 20 18 17 16 14
5 8 11 10 7 3 3 5 10 10 12 11 15 15 18 23 16 7 15 15 20 24 22 21 10 10 5 5 5 5 5 7 9 11 12 11 9 13 16 21 22 21 19 17 16
5 8 9 9 6 3 4 4 6 9 8 9 14 13 15 18 19 11 13 21 15 17 23 17 14 12 7 4 4 9 11 9 12 12 10 11 13 16 16 21 24 23 22 20 18
Wind_Direction
270 267 267 267 266 263 264 258 254 253 231 210 172 159 169 137 120 94 45 138 178 145 142 144 130 129 121 119 90 93 98 102 109 98 110 105 109 115 133 134 141 148 156 163 155
280 271 265 265 264 260 259 253 247 237 222 187 174 166 169 136 113 74 85 113 139 158 175 155 139 130 132 127 114 93 95 92 116 110 115 114 102 111 126 133 144 154 162 160 162
296 282 273 267 265 260 251 247 238 223 208 181 173 170 167 133 113 121 107 100 104 109 130 156 150 137 139 133 125 107 95 100 107 113 115 116 104 113 130 130 149 167 160 164 166
306 292 282 272 270 264 250 239 227 206 194 176 173 172 169 142 125 126 113 102 93 108 119 140 141 130 135 138 123 92 105 98 107 115 114 113 103 126 112 164 154 147 159 169 166
309 298 293 280 271 269 250 232 219 194 182 175 173 174 168 152 170 146 126 106 94 102 99 109 127 136 145 145 123 104 105 115 123 119 120 92 107 111 97 152 161 152 150 166 171
308 302 301 284 276 264 249 226 210 191 175 175 174 175 167 163 173 161 138 121 106 101 106 135 155 149 136 147 133 103 116 129 126 132 128 105 101 56 94 144 156 152 148 157 151
303 296 296 293 294 264 245 218 204 188 172 173 176 174 171 183 171 167 156 140 120 111 107 120 152 135 145 134 133 113 115 115 130 131 145 125 101 94 110 142 149 146 140 148 147
295 289 292 298 309 288 229 211 193 182 173 172 178 176 183 179 177 175 168 157 149 133 112 114 147 148 151 135 126 138 144 145 168 154 132 140 122 109 124 153 155 157 154 156 155
286 274 283 301 320 323 220 189 185 178 176 173 178 181 191 186 182 185 177 178 176 159 121 116 140 139 137 123 129 133 126 123 146 167 124 137 118 159 143 160 162 165 163 162 156
283 267 263 280 333 2 166 174 178 180 178 170 180 178 197 195 186 190 197 186 181 170 153 147 144 153 170 150 79 112 129 123 122 183 166 149 129 143 157 167 174 171 175 172 165
280 259 253 257 244 160 148 167 168 191 196 174 189 198 205 203 196 192 200 205 207 179 190 191 183 185 191 203 229 203 143 126 148 172 161 172 167 163 165 170 179 180 182 179 174
294 260 237 247 221 197 172 168 183 201 198 208 209 202 214 205 206 203 205 204 215 207 209 217 212 211 210 241 268 241 239 214 178 170 168 170 164 171 178 174 180 182 184 185 185
288 269 236 239 220 204 199 177 172 184 192 222 213 198 213 207 210 212 207 206 216 226 224 227 213 222 248 279 270 234 227 199 194 168 172 172 175 176 182 184 184 181 189 189 189
299 273 252 235 230 213 212 212 201 208 229 229 209 209 214 195 210 200 203 209 219 222 241 239 238 225 241 244 221 196 216 202 175 180 181 195 122 182 195 190 195 188 190 192 194
328 284 256 240 237 228 219 225 211 197 258 223 197 210 197 192 208 211 203 212 218 227 219 231 242 218 221 216 190 190 155 166 195 233 253 212 268 158 177 196 203 200 196 196 197
329 301 280 246 236 231 226 222 202 200 231 208 194 202 195 196 197 207 204 203 206 208 223 222 224 208 211 220 203 194 166 166 206 241 241 187 242 147 159 164 189 206 213 198 195
325 315 290 259 237 225 220 210 206 231 245 201 205 204 201 203 206 200 199 199 202 202 214 219 210 205 209 212 210 197 220 231 222 219 242 169 226 162 164 231 225 221 209 198 188
313 310 290 252 225 216 209 192 227 247 219 223 204 211 208 207 210 206 201 208 208 209 222 207 199 198 206 200 223 218 232 246 258 256 261 155 251 194 257 262 262 253 232 200 197
318 305 278 246 218 199 195 206 232 227 231 222 243 215 213 213 219 212 211 212 219 209 218 217 214 198 190 207 208 224 223 246 270 265 272 267 201 262 255 248 254 219 179 186 189
318 310 295 249 208 196 199 216 227 219 231 232 232 223 223 219 209 210 211 216 213 215 213 226 216 196 195 192 201 216 221 233 239 267 259 252 251 238 205 227 226 182 190 188 190
318 352 318 207 183 188 209 223 234 238 231 228 229 235 228 216 215 218 214 218 213 212 201 216 217 190 198 210 222 214 228 234 254 254 288 264 212 210 233 224 206 194 190 192 199
290 252 230 171 144 197 213 226 233 237 248 242 246 233 228 231 222 216 212 218 213 206 210 206 218 203 207 223 219 221 237 226 235 215 241 276 299 263 235 233 218 214 214 208 207
209 209 193 156 183 193 241 244 239 243 253 250 243 237 240 227 221 211 213 217 228 215 203 205 217 183 198 206 206 208 217 218 234 258 264 275 147 213 220 227 225 214 221 222 217
204 183 220 225 220 199 254 256 258 263 255 249 248 243 240 245 239 228 203 216 223 212 204 193 221 233 233 215 192 201 203 222 245 266 266 246 203 236 208 218 221 206 195 202 208
234 226 206 197 236 200 287 270 278 282 266 251 245 237 230 234 235 233 205 207 205 212 211 204 216 202 234 232 170 187 204 236 254 260 261 292 242 202 208 202 213 212 201 196 194
245 223 221 227 231 259 279 291 298 295 270 260 246 232 234 226 225 234 219 202 205 207 206 208 206 169 136 155 174 207 228 240 250 250 251 257 232 191 195 200 204 205 205 209 216
255 229 206 221 209 194 257 316 324 331 299 261 251 239 235 226 226 239 221 213 214 193 197 196 201 189 181 190 222 249 241 250 248 246 245 242 229 205 217 200 203 206 211 217 226